Location: Julian California
(33.0790°N, 116.6010°W)
Time: 15:28:30
(UTC-07:00)

USA 245 - Pass Details

Date: 14 June 2018
Orbit: 264 x 994 km, 97.9° (Epoch: 14 October)

Event Time Altitude Azimuth Distance (km) Brightness Sun altitude
Exits shadow 21:41:51 32° 133° (SE) 1,389 4.7 -18.4°
Maximum altitude 21:44:10 55° 73° (ENE) 1,051 4.5 -18.8°
Drops below altitude 10° 21:50:09 10° 357° (N) 2,705 7.5 -19.6°
Sets 21:52:48 0° 354° (N) 3,701 8.4 -20.0°
